カタログに戻る

STARLINK-30805

運用中通信VLEO
NORAD 58214·PAYLOAD·🇺🇸 United States

打ち上げ Nov 3, 2023 から Cape Canaveral Space Force Station

Loading…

次のパス (今後24時間)

TLE

最新Source: CelesTrak SupGP

元期: Sep 15, 2026, 02:25 UTC

1 58214C 23170J   26258.10118056  .00003411  00000+0  12355-3 0  2583
2 58214  43.0016 204.2535 0001536 267.2927 348.7515 15.27575393    18

AllMySatでSTARLINK-30805をリアルタイム追跡

Download on the App Store